405  
ASUS46 KEKA 130840  
RWREKA  
EUREKA AREA WEATHER ROUNDUP  
NATIONAL WEATHER SERVICE EUREKA CA  
100 AM PDT THU JUN 13 2024  
 
NOTE: "FAIR" INDICATES FEW OR NO CLOUDS BELOW 12,000 FEET WITH NO  
SIGNIFICANT WEATHER AND/OR S TO VISIBILITY
.  
 
SOUTHWEST OREGON...  
 
CITY SKY/WX TMP DP RH WIND PRES REMARKS
 
MEDFORD CLEAR 60 36 40 NW8 30.00S  
KLAMATH FALLS CLEAR 55 43 63 CALM 30.04S  
NORTH BEND CLEAR 51 47 86 N10 30.11F  
ROSEBURG CLEAR 57 39 51 CALM 30.04S  
SEXTON SUMMIT CLEAR 49 31 49 N8 30.06S  
BROOKINGS PTCLDY 48 48 100 CALM 30.01R  
 
NORTHWEST CALIFORNIA...  
 
CITY SKY/WX TMP DP RH WIND PRES REMARKS
 
CRESCENT CITY CLOUDY 50 48 93 E3 29.99F  
MCKINLEYVILLE CLOUDY 52 48 86 S5 30.00S FOG  
EUREKA CLOUDY 51 32 48 W3 30.02S  
FORTUNA CLOUDY 48 48 100 NW5 30.02S  
TRINITY CENTER CLEAR 61 43 51 W7 29.93S  
UKIAH CLEAR 64 48 56 CALM 29.86S  
 
NORTH & CENTRAL CALIFORNIA...  
 
CITY SKY/WX TMP DP RH WIND PRES REMARKS
 
YREKA CLEAR 65 40 39 N9 29.99R  
MOUNT SHASTA CLEAR 61 44 53 CALM 30.00F  
REDDING CLEAR 81 52 36 W7 29.76R  
RED BLUFF CLEAR 80 58 46 SW9 29.78R  
CHICO CLEAR 75 57 53 SE9 29.79R  
YUBA CITY CLEAR 68 52 56 SE10 29.79R  
SACRAMENTO CLEAR 61 50 67 S12G17 29.81S  
SANTA ROSA CLEAR 50 49 96 S6 29.90S  
NAPA CLEAR 55 52 89 SW7 29.89R  
TRAVIS AFB NOT AVBL  
SAN FRANCISCO PTCLDY 57 50 77 S10 29.90S  
OAKLAND MOCLDY 57 52 83 N7 29.91S  
STOCKTON NOT AVBL  
SALINAS CLOUDY 55 51 86 W6 29.95F  
MONTEREY CLOUDY 54 53 97 SW3 29.96S FOG  
 

 
 
 
CLICK HERE TO GO TO PREVIOUS BULLETINS.

The Nexlab CA Page Main Text Page